Time,TemperatureF,DewpointF,PressureIn,WindDirection,WindDirectionDegrees,WindSpeedMPH,WindSpeedGustMPH,Humidity,HourlyPrecipIn,Conditions,Clouds,dailyrainin,SoftwareType,DateUTC
2013-01-07 00:00:00,35.1,27.6,30.34,NNE,22,0.0,0.0,74,0.00,,,0.00,Wunderground v.1.15,2013-01-07 06:00:00,
2013-01-07 00:10:00,35.5,27.7,30.34,NNE,22,0.0,0.0,73,0.00,,,0.00,Wunderground v.1.15,2013-01-07 06:10:00,
2013-01-07 00:20:00,35.9,27.7,30.34,NNE,22,0.0,0.0,72,0.00,,,0.00,Wunderground v.1.15,2013-01-07 06:20:00,
2013-01-07 00:30:00,35.7,27.6,30.34,NNE,22,0.0,0.0,72,0.00,,,0.00,Wunderground v.1.15,2013-01-07 06:30:00,
2013-01-07 00:40:00,35.2,27.4,30.34,NNE,22,0.0,0.0,73,0.00,,,0.00,Wunderground v.1.15,2013-01-07 06:40:00,
2013-01-07 00:50:00,34.6,27.2,30.34,NNE,22,0.0,0.0,74,0.00,,,0.00,Wunderground v.1.15,2013-01-07 06:50:00,
2013-01-07 01:00:00,34.1,27.0,30.33,NNE,22,0.0,0.0,75,0.00,,,0.00,Wunderground v.1.15,2013-01-07 07:00:00,
2013-01-07 01:10:00,34.3,27.2,30.33,NNE,22,0.0,0.0,75,0.00,,,0.00,Wunderground v.1.15,2013-01-07 07:10:00,
2013-01-07 01:20:00,34.5,27.1,30.33,NNE,22,0.0,0.0,74,0.00,,,0.00,Wunderground v.1.15,2013-01-07 07:20:00,
2013-01-07 01:30:00,34.4,27.3,30.33,NNW,337,1.0,1.0,75,0.00,,,0.00,Wunderground v.1.15,2013-01-07 07:30:00,
2013-01-07 01:40:00,34.1,27.0,30.33,NNW,337,0.0,0.0,75,0.00,,,0.00,Wunderground v.1.15,2013-01-07 07:40:00,
2013-01-07 01:50:00,33.7,26.6,30.33,NNW,337,0.0,0.0,75,0.00,,,0.00,Wunderground v.1.15,2013-01-07 07:50:00,
2013-01-07 01:55:00,33.5,26.7,30.33,NNW,337,0.0,0.0,76,0.00,,,0.00,Wunderground v.1.15,2013-01-07 07:55:00,
2013-01-07 02:00:00,33.3,26.5,30.32,NNW,337,0.0,0.0,76,0.00,,,0.00,Wunderground v.1.15,2013-01-07 08:00:00,
2013-01-07 02:10:00,32.8,26.1,30.32,NNW,337,0.0,0.0,76,0.00,,,0.00,Wunderground v.1.15,2013-01-07 08:10:00,
2013-01-07 02:20:00,32.4,26.0,30.31,NNW,337,0.0,0.0,77,0.00,,,0.00,Wunderground v.1.15,2013-01-07 08:20:00,
2013-01-07 02:25:00,32.3,26.2,30.31,NNW,337,0.0,0.0,78,0.00,,,0.00,Wunderground v.1.15,2013-01-07 08:25:00,
2013-01-07 02:35:00,32.0,27.4,30.31,NNW,337,0.0,0.0,83,0.00,,,0.00,Wunderground v.1.15,2013-01-07 08:35:00,
2013-01-07 02:45:00,31.7,25.6,30.31,NNW,337,0.0,0.0,78,0.00,,,0.00,Wunderground v.1.15,2013-01-07 08:45:00,
2013-01-07 02:55:00,31.4,25.3,30.32,NNW,337,0.0,0.0,78,0.00,,,0.00,Wunderground v.1.15,2013-01-07 08:55:00,
2013-01-07 03:00:00,31.3,25.5,30.32,NNW,337,0.0,0.0,79,0.00,,,0.00,Wunderground v.1.15,2013-01-07 09:00:00,
2013-01-07 03:10:00,31.3,25.8,30.32,NNW,337,0.0,0.0,80,0.00,,,0.00,Wunderground v.1.15,2013-01-07 09:10:00,
2013-01-07 03:20:00,31.3,25.8,30.32,NNW,337,0.0,0.0,80,0.00,,,0.00,Wunderground v.1.15,2013-01-07 09:20:00,
2013-01-07 03:30:00,31.5,26.0,30.33,NNW,337,0.0,0.0,80,0.00,,,0.00,Wunderground v.1.15,2013-01-07 09:30:00,
2013-01-07 03:40:00,31.2,25.7,30.32,NNW,337,0.0,0.0,80,0.00,,,0.00,Wunderground v.1.15,2013-01-07 09:40:00,
2013-01-07 03:50:00,30.8,25.4,30.32,NNW,337,0.0,0.0,80,0.00,,,0.00,Wunderground v.1.15,2013-01-07 09:50:00,
2013-01-07 04:00:00,30.5,25.1,30.32,NNW,337,0.0,0.0,80,0.00,,,0.00,Wunderground v.1.15,2013-01-07 10:00:00,
2013-01-07 04:10:00,30.3,25.2,30.32,NNW,337,0.0,0.0,81,0.00,,,0.00,Wunderground v.1.15,2013-01-07 10:10:00,
2013-01-07 04:20:00,30.3,25.2,30.31,NNW,337,0.0,0.0,81,0.00,,,0.00,Wunderground v.1.15,2013-01-07 10:20:00,
2013-01-07 04:30:00,30.2,25.1,30.31,NNW,337,0.0,0.0,81,0.00,,,0.00,Wunderground v.1.15,2013-01-07 10:30:00,
2013-01-07 04:40:00,30.1,25.0,30.31,NNW,337,0.0,0.0,81,0.00,,,0.00,Wunderground v.1.15,2013-01-07 10:40:00,
2013-01-07 04:50:00,30.3,25.8,30.31,NNW,337,0.0,0.0,83,0.00,,,0.00,Wunderground v.1.15,2013-01-07 10:50:00,
2013-01-07 04:55:00,30.5,26.0,30.31,NNW,337,0.0,0.0,83,0.00,,,0.00,Wunderground v.1.15,2013-01-07 10:55:00,
2013-01-07 05:00:00,30.6,26.1,30.31,NNW,337,0.0,0.0,83,0.00,,,0.00,Wunderground v.1.15,2013-01-07 11:00:00,
2013-01-07 05:10:00,30.9,26.1,30.31,NNW,337,0.0,0.0,82,0.00,,,0.00,Wunderground v.1.15,2013-01-07 11:10:00,
2013-01-07 05:20:00,31.2,26.0,30.31,NNW,337,0.0,0.0,81,0.00,,,0.00,Wunderground v.1.15,2013-01-07 11:20:00,
2013-01-07 05:25:00,31.3,26.1,30.31,NNW,337,0.0,0.0,81,0.00,,,0.00,Wunderground v.1.15,2013-01-07 11:25:00,
2013-01-07 05:35:00,31.1,25.7,30.31,NNW,337,0.0,0.0,80,0.00,,,0.00,Wunderground v.1.15,2013-01-07 11:35:00,
2013-01-07 05:45:00,30.8,25.7,30.31,NNW,337,0.0,0.0,81,0.00,,,0.00,Wunderground v.1.15,2013-01-07 11:45:00,
2013-01-07 05:55:00,30.6,25.8,30.31,NNW,337,0.0,0.0,82,0.00,,,0.00,Wunderground v.1.15,2013-01-07 11:55:00,
2013-01-07 06:00:00,30.5,25.7,30.31,NNW,337,0.0,0.0,82,0.00,,,0.00,Wunderground v.1.15,2013-01-07 12:00:00,
2013-01-07 06:10:00,30.6,26.1,30.31,NNW,337,0.0,0.0,83,0.00,,,0.00,Wunderground v.1.15,2013-01-07 12:10:00,
2013-01-07 06:15:00,30.6,26.1,30.31,NNW,337,0.0,0.0,83,0.00,,,0.00,Wunderground v.1.15,2013-01-07 12:15:00,
2013-01-07 06:25:00,30.4,25.6,30.31,NNW,337,0.0,0.0,82,0.00,,,0.00,Wunderground v.1.15,2013-01-07 12:25:00,
2013-01-07 06:35:00,30.0,25.5,30.31,NNW,337,0.0,0.0,83,0.00,,,0.00,Wunderground v.1.15,2013-01-07 12:35:00,
2013-01-07 06:45:00,29.5,25.0,30.31,NNW,337,0.0,0.0,83,0.00,,,0.00,Wunderground v.1.15,2013-01-07 12:45:00,
2013-01-07 06:55:00,29.1,24.9,30.32,NNW,337,0.0,0.0,84,0.00,,,0.00,Wunderground v.1.15,2013-01-07 12:55:00,
2013-01-07 07:00:00,28.9,25.0,30.32,NNW,337,0.0,0.0,85,0.00,,,0.00,Wunderground v.1.15,2013-01-07 13:00:00,
2013-01-07 07:10:00,28.5,24.6,30.32,NNW,337,0.0,0.0,85,0.00,,,0.00,Wunderground v.1.15,2013-01-07 13:10:00,
2013-01-07 07:20:00,28.2,24.3,30.32,NNW,337,0.0,0.0,85,0.00,,,0.00,Wunderground v.1.15,2013-01-07 13:20:00,
2013-01-07 07:25:00,28.0,26.0,30.32,NNW,337,0.0,0.0,92,0.00,,,0.00,Wunderground v.1.15,2013-01-07 13:25:00,
2013-01-07 07:35:00,27.8,24.2,30.32,NNW,337,0.0,0.0,86,0.00,,,0.00,Wunderground v.1.15,2013-01-07 13:35:00,
2013-01-07 07:40:00,27.9,24.5,30.32,NNW,337,0.0,0.0,87,0.00,,,0.00,Wunderground v.1.15,2013-01-07 13:40:00,
2013-01-07 07:50:00,28.3,25.2,30.32,NNW,337,0.0,0.0,88,0.00,,,0.00,Wunderground v.1.15,2013-01-07 13:50:00,
2013-01-07 08:00:00,29.3,26.2,30.32,NNW,337,0.0,0.0,88,0.00,,,0.00,Wunderground v.1.15,2013-01-07 14:00:00,
2013-01-07 08:10:00,29.9,26.8,30.32,NNW,339,0.0,0.0,88,0.00,,,0.00,Wunderground v.1.15,2013-01-07 14:10:00,
2013-01-07 08:20:00,32.3,28.6,30.32,NNW,340,0.0,0.0,86,0.00,,,0.00,Wunderground v.1.15,2013-01-07 14:20:00,
2013-01-07 08:30:00,34.4,29.5,30.33,NNW,340,0.0,0.0,82,0.00,,,0.00,Wunderground v.1.15,2013-01-07 14:30:00,
2013-01-07 08:40:00,36.5,30.3,30.33,SW,217,0.0,0.0,78,0.00,,,0.00,Wunderground v.1.15,2013-01-07 14:40:00,
2013-01-07 08:45:00,37.2,30.3,30.33,SW,217,0.0,0.0,76,0.00,,,0.00,Wunderground v.1.15,2013-01-07 14:45:00,
2013-01-07 08:55:00,38.7,31.5,30.33,SW,217,0.0,0.0,75,0.00,,,0.00,Wunderground v.1.15,2013-01-07 14:55:00,
2013-01-07 09:00:00,39.5,31.6,30.33,SW,217,0.0,0.0,73,0.00,,,0.00,Wunderground v.1.15,2013-01-07 15:00:00,
2013-01-07 09:10:00,40.1,31.4,30.33,South,178,0.0,0.0,71,0.00,,,0.00,Wunderground v.1.15,2013-01-07 15:10:00,
2013-01-07 09:15:00,40.5,31.5,30.32,South,175,0.0,2.0,70,0.00,,,0.00,Wunderground v.1.15,2013-01-07 15:15:00,
2013-01-07 09:25:00,40.8,31.4,30.32,East,86,2.0,4.0,69,0.00,,,0.00,Wunderground v.1.15,2013-01-07 15:25:00,
2013-01-07 09:30:00,41.0,31.6,30.32,East,86,2.0,3.0,69,0.00,,,0.00,Wunderground v.1.15,2013-01-07 15:30:00,
2013-01-07 09:40:00,41.6,31.1,30.32,East,87,0.0,0.0,66,0.00,,,0.00,Wunderground v.1.15,2013-01-07 15:40:00,
2013-01-07 09:50:00,42.5,31.9,30.32,East,87,0.0,0.0,66,0.00,,,0.00,Wunderground v.1.15,2013-01-07 15:50:00,
2013-01-07 10:00:00,43.8,32.4,30.33,East,87,0.0,0.0,64,0.00,,,0.00,Wunderground v.1.15,2013-01-07 16:00:00,
2013-01-07 10:10:00,44.8,32.6,30.33,East,99,0.0,0.0,62,0.00,,,0.00,Wunderground v.1.15,2013-01-07 16:10:00,
2013-01-07 10:20:00,45.7,34.2,30.33,ESE,103,2.0,2.0,64,0.00,,,0.00,Wunderground v.1.15,2013-01-07 16:20:00,
2013-01-07 10:25:00,46.7,34.8,30.32,ESE,111,1.0,2.0,63,0.00,,,0.00,Wunderground v.1.15,2013-01-07 16:25:00,
2013-01-07 10:35:00,47.7,34.5,30.33,SE,129,5.0,6.0,60,0.00,,,0.00,Wunderground v.1.15,2013-01-07 16:35:00,
2013-01-07 10:45:00,49.8,36.0,30.33,ESE,106,5.0,5.0,59,0.00,,,0.00,Wunderground v.1.15,2013-01-07 16:45:00,
2013-01-07 10:55:00,50.5,35.8,30.33,SSE,150,5.0,8.0,57,0.00,,,0.00,Wunderground v.1.15,2013-01-07 16:55:00,
2013-01-07 11:00:00,50.1,35.4,30.33,South,174,7.0,7.0,57,0.00,,,0.00,Wunderground v.1.15,2013-01-07 17:00:00,
2013-01-07 11:10:00,51.0,35.8,30.33,SE,138,6.0,6.0,56,0.00,,,0.00,Wunderground v.1.15,2013-01-07 17:10:00,
2013-01-07 11:20:00,51.2,36.0,30.32,SSE,153,7.0,8.0,56,0.00,,,0.00,Wunderground v.1.15,2013-01-07 17:20:00,
2013-01-07 11:30:00,50.9,35.7,30.31,SE,135,7.0,8.0,56,0.00,,,0.00,Wunderground v.1.15,2013-01-07 17:30:00,
2013-01-07 11:40:00,51.8,36.1,30.31,SSE,161,5.0,5.0,55,0.00,,,0.00,Wunderground v.1.15,2013-01-07 17:40:00,
2013-01-07 11:50:00,52.3,36.6,30.30,SSE,150,5.0,5.0,55,0.00,,,0.00,Wunderground v.1.15,2013-01-07 17:50:00,
2013-01-07 12:00:00,53.1,36.4,30.28,ESE,121,7.0,9.0,53,0.00,,,0.00,Wunderground v.1.15,2013-01-07 18:00:00,
2013-01-07 12:10:00,53.7,36.5,30.28,SE,132,8.0,8.0,52,0.00,,,0.00,Wunderground v.1.15,2013-01-07 18:10:00,
2013-01-07 12:15:00,54.0,36.3,30.28,SSE,151,10.0,10.0,51,0.00,,,0.00,Wunderground v.1.15,2013-01-07 18:15:00,
2013-01-07 12:25:00,54.0,35.8,30.27,SE,146,9.0,13.0,50,0.00,,,0.00,Wunderground v.1.15,2013-01-07 18:25:00,
2013-01-07 12:35:00,53.9,36.2,30.26,South,175,9.0,9.0,51,0.00,,,0.00,Wunderground v.1.15,2013-01-07 18:35:00,
2013-01-07 12:45:00,54.5,36.7,30.25,SSE,159,7.0,8.0,51,0.00,,,0.00,Wunderground v.1.15,2013-01-07 18:45:00,
2013-01-07 12:55:00,55.0,36.7,30.24,ESE,106,6.0,7.0,50,0.00,,,0.00,Wunderground v.1.15,2013-01-07 18:55:00,
2013-01-07 13:00:00,55.7,36.3,30.23,South,177,6.0,6.0,48,0.00,,,0.00,Wunderground v.1.15,2013-01-07 19:00:00,
2013-01-07 13:10:00,55.5,35.6,30.23,ESE,117,6.0,6.0,47,0.00,,,0.00,Wunderground v.1.15,2013-01-07 19:10:00,
2013-01-07 13:20:00,54.7,34.3,30.22,SSE,154,7.0,10.0,46,0.00,,,0.00,Wunderground v.1.15,2013-01-07 19:20:00,
2013-01-07 13:30:00,54.8,34.9,30.22,SE,144,8.0,10.0,47,0.00,,,0.00,Wunderground v.1.15,2013-01-07 19:30:00,
2013-01-07 13:40:00,54.7,34.8,30.21,ESE,115,8.0,8.0,47,0.00,,,0.00,Wunderground v.1.15,2013-01-07 19:40:00,
2013-01-07 13:50:00,55.0,34.6,30.21,ESE,117,6.0,11.0,46,0.00,,,0.00,Wunderground v.1.15,2013-01-07 19:50:00,
2013-01-07 13:55:00,54.5,34.1,30.20,SE,135,8.0,14.0,46,0.00,,,0.00,Wunderground v.1.15,2013-01-07 19:55:00,
2013-01-07 14:00:00,54.4,34.0,30.19,ESE,111,8.0,9.0,46,0.00,,,0.00,Wunderground v.1.15,2013-01-07 20:00:00,
2013-01-07 14:10:00,54.4,34.0,30.18,ESE,120,8.0,8.0,46,0.00,,,0.00,Wunderground v.1.15,2013-01-07 20:10:00,
2013-01-07 14:20:00,54.4,34.0,30.17,ESE,115,8.0,8.0,46,0.00,,,0.00,Wunderground v.1.15,2013-01-07 20:20:00,
2013-01-07 14:25:00,54.4,34.0,30.18,SE,140,8.0,8.0,46,0.00,,,0.00,Wunderground v.1.15,2013-01-07 20:25:00,
2013-01-07 14:35:00,54.2,34.9,30.17,SE,129,9.0,9.0,48,0.00,,,0.00,Wunderground v.1.15,2013-01-07 20:35:00,
2013-01-07 14:40:00,54.8,34.9,30.18,ESE,111,7.0,9.0,47,0.00,,,0.00,Wunderground v.1.15,2013-01-07 20:40:00,
2013-01-07 14:50:00,55.5,35.0,30.18,SE,124,9.0,12.0,46,0.00,,,0.00,Wunderground v.1.15,2013-01-07 20:50:00,
2013-01-07 15:00:00,55.6,34.6,30.16,SE,136,8.0,10.0,45,0.00,,,0.00,Wunderground v.1.15,2013-01-07 21:00:00,
2013-01-07 15:10:00,56.3,35.2,30.15,ESE,111,8.0,8.0,45,0.00,,,0.00,Wunderground v.1.15,2013-01-07 21:10:00,
2013-01-07 15:20:00,55.5,35.0,30.16,ESE,116,8.0,8.0,46,0.00,,,0.00,Wunderground v.1.15,2013-01-07 21:20:00,
2013-01-07 15:30:00,54.2,34.4,30.17,ESE,115,7.0,8.0,47,0.00,,,0.00,Wunderground v.1.15,2013-01-07 21:30:00,
2013-01-07 15:40:00,53.7,33.9,30.17,SE,125,6.0,7.0,47,0.00,,,0.00,Wunderground v.1.15,2013-01-07 21:40:00,
2013-01-07 15:45:00,53.6,34.4,30.16,ESE,117,6.0,7.0,48,0.00,,,0.00,Wunderground v.1.15,2013-01-07 21:45:00,
2013-01-07 15:55:00,53.5,33.7,30.16,SE,140,7.0,9.0,47,0.00,,,0.00,Wunderground v.1.15,2013-01-07 21:55:00,
2013-01-07 16:00:00,53.6,33.8,30.16,ESE,118,7.0,7.0,47,0.00,,,0.00,Wunderground v.1.15,2013-01-07 22:00:00,
2013-01-07 16:10:00,53.7,33.9,30.17,ESE,123,6.0,6.0,47,0.00,,,0.00,Wunderground v.1.15,2013-01-07 22:10:00,
2013-01-07 16:20:00,53.3,34.1,30.17,ESE,113,6.0,8.0,48,0.00,,,0.00,Wunderground v.1.15,2013-01-07 22:20:00,
2013-01-07 16:30:00,52.8,34.2,30.17,SE,140,6.0,6.0,49,0.00,,,0.00,Wunderground v.1.15,2013-01-07 22:30:00,
2013-01-07 16:40:00,52.5,33.9,30.17,SE,124,6.0,6.0,49,0.00,,,0.00,Wunderground v.1.15,2013-01-07 22:40:00,
2013-01-07 16:45:00,52.3,34.2,30.16,ESE,103,5.0,6.0,50,0.00,,,0.00,Wunderground v.1.15,2013-01-07 22:45:00,
2013-01-07 16:55:00,52.1,34.0,30.16,ESE,103,6.0,6.0,50,0.00,,,0.00,Wunderground v.1.15,2013-01-07 22:55:00,
2013-01-07 17:00:00,52.0,33.9,30.16,ESE,115,4.0,5.0,50,0.00,,,0.00,Wunderground v.1.15,2013-01-07 23:00:00,
2013-01-07 17:10:00,51.7,33.6,30.16,ESE,115,6.0,8.0,50,0.00,,,0.00,Wunderground v.1.15,2013-01-07 23:10:00,
2013-01-07 17:15:00,51.4,33.4,30.16,SE,128,6.0,8.0,50,0.00,,,0.00,Wunderground v.1.15,2013-01-07 23:15:00,
2013-01-07 17:25:00,51.0,33.0,30.15,ESE,112,5.0,7.0,50,0.00,,,0.00,Wunderground v.1.15,2013-01-07 23:25:00,
2013-01-07 17:35:00,50.6,32.6,30.16,SE,124,5.0,5.0,50,0.00,,,0.00,Wunderground v.1.15,2013-01-07 23:35:00,
2013-01-07 17:45:00,50.1,32.7,30.15,ESE,121,5.0,5.0,51,0.00,,,0.00,Wunderground v.1.15,2013-01-07 23:45:00,
2013-01-07 17:50:00,49.9,33.0,30.15,SE,124,4.0,5.0,52,0.00,,,0.00,Wunderground v.1.15,2013-01-07 23:50:00,
2013-01-07 18:00:00,49.3,33.3,30.15,SE,126,5.0,5.0,54,0.00,,,0.00,Wunderground v.1.15,2013-01-08 00:00:00,
2013-01-07 18:10:00,48.8,32.9,30.15,SE,127,4.0,4.0,54,0.00,,,0.00,Wunderground v.1.15,2013-01-08 00:10:00,
2013-01-07 18:20:00,48.4,33.0,30.16,SE,127,3.0,4.0,55,0.00,,,0.00,Wunderground v.1.15,2013-01-08 00:20:00,
2013-01-07 18:30:00,47.9,32.9,30.16,SE,127,2.0,2.0,56,0.00,,,0.00,Wunderground v.1.15,2013-01-08 00:30:00,
2013-01-07 18:40:00,47.5,33.4,30.16,SE,127,1.0,2.0,58,0.00,,,0.00,Wunderground v.1.15,2013-01-08 00:40:00,
2013-01-07 18:50:00,47.0,34.2,30.15,SE,127,2.0,2.0,61,0.00,,,0.00,Wunderground v.1.15,2013-01-08 00:50:00,
2013-01-07 19:00:00,46.6,33.0,30.16,SE,127,0.0,0.0,59,0.00,,,0.00,Wunderground v.1.15,2013-01-08 01:00:00,
2013-01-07 19:10:00,46.3,33.2,30.16,SE,127,0.0,0.0,60,0.00,,,0.00,Wunderground v.1.15,2013-01-08 01:10:00,
2013-01-07 19:20:00,46.0,33.7,30.15,SE,124,0.0,4.0,62,0.00,,,0.00,Wunderground v.1.15,2013-01-08 01:20:00,
2013-01-07 19:30:00,45.7,33.8,30.16,SE,124,1.0,1.0,63,0.00,,,0.00,Wunderground v.1.15,2013-01-08 01:30:00,
2013-01-07 19:40:00,45.7,34.2,30.15,SE,124,0.0,0.0,64,0.00,,,0.00,Wunderground v.1.15,2013-01-08 01:40:00,
2013-01-07 19:45:00,45.7,34.2,30.15,SE,124,0.0,0.0,64,0.00,,,0.00,Wunderground v.1.15,2013-01-08 01:45:00,
2013-01-07 19:55:00,45.8,34.3,30.15,SE,124,0.0,0.0,64,0.00,,,0.00,Wunderground v.1.15,2013-01-08 01:55:00,
2013-01-07 20:00:00,45.7,34.2,30.15,SE,124,0.0,0.0,64,0.00,,,0.00,Wunderground v.1.15,2013-01-08 02:00:00,
2013-01-07 20:10:00,45.5,34.4,30.14,SE,124,0.0,0.0,65,0.00,,,0.00,Wunderground v.1.15,2013-01-08 02:10:00,
2013-01-07 20:15:00,45.5,34.4,30.14,SE,124,0.0,0.0,65,0.00,,,0.00,Wunderground v.1.15,2013-01-08 02:15:00,
2013-01-07 20:25:00,45.4,34.7,30.13,ESE,123,0.0,0.0,66,0.00,,,0.00,Wunderground v.1.15,2013-01-08 02:25:00,
2013-01-07 20:35:00,45.2,34.5,30.13,ESE,123,0.0,0.0,66,0.00,,,0.00,Wunderground v.1.15,2013-01-08 02:35:00,
2013-01-07 20:45:00,45.0,34.3,30.13,ESE,119,0.0,0.0,66,0.00,,,0.00,Wunderground v.1.15,2013-01-08 02:45:00,
2013-01-07 20:50:00,45.0,34.3,30.14,ESE,119,0.0,0.0,66,0.00,,,0.00,Wunderground v.1.15,2013-01-08 02:50:00,
2013-01-07 21:00:00,44.7,34.0,30.14,ESE,119,0.0,0.0,66,0.00,,,0.00,Wunderground v.1.15,2013-01-08 03:00:00,
2013-01-07 21:10:00,44.3,34.0,30.14,ESE,119,0.0,0.0,67,0.00,,,0.00,Wunderground v.1.15,2013-01-08 03:10:00,
2013-01-07 21:20:00,44.0,34.1,30.14,ESE,119,0.0,0.0,68,0.00,,,0.00,Wunderground v.1.15,2013-01-08 03:20:00,
2013-01-07 21:30:00,43.6,34.1,30.14,ESE,119,0.0,0.0,69,0.00,,,0.00,Wunderground v.1.15,2013-01-08 03:30:00,
2013-01-07 21:40:00,43.4,34.3,30.14,ESE,119,0.0,0.0,70,0.00,,,0.00,Wunderground v.1.15,2013-01-08 03:40:00,
2013-01-07 21:50:00,43.4,34.3,30.14,ESE,119,0.0,4.0,70,0.00,,,0.00,Wunderground v.1.15,2013-01-08 03:50:00,
2013-01-07 21:55:00,43.7,34.6,30.13,ESE,118,1.0,4.0,70,0.00,,,0.00,Wunderground v.1.15,2013-01-08 03:55:00,
2013-01-07 22:00:00,44.0,34.5,30.13,ESE,114,2.0,5.0,69,0.00,,,0.00,Wunderground v.1.15,2013-01-08 04:00:00,
2013-01-07 22:10:00,44.6,34.7,30.13,ESE,113,1.0,1.0,68,0.00,,,0.00,Wunderground v.1.15,2013-01-08 04:10:00,
2013-01-07 22:20:00,45.1,34.8,30.13,ESE,114,2.0,4.0,67,0.00,,,0.00,Wunderground v.1.15,2013-01-08 04:20:00,
2013-01-07 22:25:00,45.2,34.5,30.13,ESE,116,3.0,4.0,66,0.00,,,0.00,Wunderground v.1.15,2013-01-08 04:25:00,
2013-01-07 22:35:00,45.5,34.8,30.13,ESE,116,3.0,4.0,66,0.00,,,0.00,Wunderground v.1.15,2013-01-08 04:35:00,
2013-01-07 22:45:00,45.6,34.5,30.12,ESE,115,5.0,5.0,65,0.00,,,0.00,Wunderground v.1.15,2013-01-08 04:45:00,
2013-01-07 22:55:00,45.9,34.4,30.12,ESE,123,5.0,6.0,64,0.00,,,0.00,Wunderground v.1.15,2013-01-08 04:55:00,
2013-01-07 23:00:00,46.0,34.5,30.12,ESE,116,5.0,6.0,64,0.00,,,0.00,Wunderground v.1.15,2013-01-08 05:00:00,
2013-01-07 23:05:00,46.1,34.6,30.11,ESE,117,5.0,6.0,64,0.00,,,0.00,Wunderground v.1.15,2013-01-08 05:05:00,
2013-01-07 23:10:00,46.1,34.2,30.12,SE,140,4.0,4.0,63,0.00,,,0.00,Wunderground v.1.15,2013-01-08 05:10:00,
2013-01-07 23:15:00,46.2,34.7,30.12,SE,132,4.0,5.0,64,0.00,,,0.00,Wunderground v.1.15,2013-01-08 05:15:00,
2013-01-07 23:25:00,46.2,34.3,30.11,ESE,119,5.0,7.0,63,0.00,,,0.00,Wunderground v.1.15,2013-01-08 05:25:00,
2013-01-07 23:35:00,46.0,34.1,30.11,ESE,121,4.0,6.0,63,0.00,,,0.00,Wunderground v.1.15,2013-01-08 05:35:00,
2013-01-07 23:45:00,45.7,34.2,30.11,SE,124,4.0,7.0,64,0.00,,,0.00,Wunderground v.1.15,2013-01-08 05:45:00,
2013-01-07 23:55:00,45.4,34.3,30.11,SE,124,1.0,4.0,65,0.00,,,0.00,Wunderground v.1.15,2013-01-08 05:55:00,